Regional Weather Roundup
Issued by NWS Portland, ME

Current Version | Previous Version | Text Only | Print | Product List | Glossary On
Versions: 1 2 3 4 5 6 7 8 9 10 11 12 13 14 15 16 17 18 19 20 21 22 23 24 25 26 27 28 29 30 31 32 33 34 35 36 37 38 39 40 41 42 43 44 45 46 47 48 49 50
000
ASUS41 KGYX 240510
RWRGYX
WEATHER ROUNDUP FOR MAINE AND NEW HAMPSHIRE
NATIONAL WEATHER SERVICE GRAY ME
100 AM EDT THU APR 24 2014

MEZ002-005-006-010-012-015-018-020-021-024-026-027-029-240600-
MAINE

CITY           SKY/WX    TMP DP  RH WIND       PRES   REMARKS
PORTLAND       CLOUDY    45  31  58 NW23G30   29.54S
SANFORD        CLOUDY    45 N/A N/A NW15G25   29.55F
BAR HARBOR     CLOUDY    37  37 100 N13G30    29.40S
WISCASSET      CLOUDY    46  33  60 NW8G17    29.50S
ROCKLAND       CLOUDY    43  34  70 NW9G23    29.45F
FRYEBURG       CLOUDY    44  27  51 NW14G24   29.58R
LEWISTONAUBURN CLOUDY    45  30  57 NW17G30   29.53S
AUGUSTA        CLOUDY    43  31  62 NW13      29.50S
WATERVILLE     MOCLDY    43  32  65 N18G29    29.46S
BANGOR         LGT RAIN  39  34  82 N13       29.48R
GREENVILLE       N/A     35  32  88 NW20G35   29.46F
MILLINOCKET    LGT RAIN  37  32  82 NW14G23   29.51
HOULTON        RAIN      34  32  92 N12       29.45F
PRESQUE ISLE   CLOUDY    34  28  80 NW12G18   29.50F
FRENCHVILLE    FLURRIES  31  30  96 N16       29.50F WCI  20
CARIBOU        LGT RAIN  34  31  88 NW16      29.48S
$$

NHZ002-005-008-009-011-012-014-240600-
NEW HAMPSHIRE

CITY           SKY/WX    TMP DP  RH WIND       PRES   REMARKS
PORTSMOUTH     MOCLDY    45  30  55 NW17G26   29.56R
ROCHESTER      MOCLDY    44  29  55 NW16G26   29.56S
NASHUA         CLOUDY    46  28  49 NW22G31   29.64R
MANCHESTER     MOCLDY    46  28  49 NW23G32   29.62R
CONCORD        CLOUDY    44  29  55 NW10G24   29.63R
LACONIA        CLOUDY    43  27  52 NW20G33   29.63S
PLYMOUTH         N/A     42  30  62 NW15G26   29.64S
BERLIN         CLOUDY    38  31  76 NW14G23   29.62R
WHITEFIELD     CLOUDY    38  29  70 NW15G24   29.67R
JAFFREY        CLOUDY    41  26  55 NW10G22   29.66R
LEBANON        MOCLDY    43  24  47 NW23G33   29.69R
MT WASHINGTON  SNOW      16  16 100 N61G77      N/A  VSB 0   WCI -10
$$

VTZ005-007-008-240600-
VERMONT

CITY           SKY/WX    TMP DP  RH WIND       PRES   REMARKS
ST JOHNSBURY     N/A     40  27  59 MISG      29.68S
MONTPELIER     CLOUDY    37  26  64 NW12      29.75S
BURLINGTON     MOCLDY    42  21  43 N18       29.79R
$$

MAZ007-012-024-CTZ003-RIZ002-NYZ038-NYZ072-240600-
SOUTHERN NEW ENGLAND AND NY

CITY           SKY/WX    TMP DP  RH WIND       PRES   REMARKS
BOSTON         PTCLDY    47  29  49 NW23G32   29.62R
WORCESTER      MOCLDY    42  27  55 NW20G32   29.65R
NANTUCKET      CLOUDY    48  33  56 NW17G32   29.56R
PROVIDENCE     CLOUDY    47  29  49 NW13G28   29.65R
HARTFORD       PTCLDY    44  28  53 NW16G30   29.72R
ALBANY         PTCLDY    40  29  64 W12       29.82R
NEW YORK CITY  PTCLDY    45  30  55 NW18G31   29.84R
$$

ANZ081-ANZ082-ANZ150-NHZ014-MEZ023>029-240600-
COASTAL MARINE OBSERVATIONS

STATION/POSITION TIME  TEMP    WIND        PRES    WAVE
                       AIR SEA DIR/SP/G            HT/PER
                 (UTC) (F)     (DEG/KT/KT) (MB)    (FT/S)
MOUNT DESERT ROC 0500   39                  993.8F
MATINICUS ROCK   0400   42     340/ 20/ 24  997.4R
PORTLAND WX BUOY 0500   46 42  320/ 19/ 27  999.3R   2/ 3
WELLS            0500   46 41  340/ 13/ 20  999.7S
ISLE OF SHOALS   0400   46     310/ 22/ 25  999.9R
JEFFREYS LEDGE   0500      42                N/A     4/ 5
CASHES LEDGE BUO 0500   42 42  330/ 25/ 31  996.9R   7/ 6
$$

.............KEY..............
   WCI - WIND CHILL
   TC  - TEMPERATURE IN CELSIUS
   VSB - VISIBILITY IN MILES
   HX  - HEAT INDEX
   FAIR- INDICATES FEW OR NO CLOUDS BELOW 12,000 FT, WITH NO
         SIGNIFICANT WEATHER AND/OR OBSTRUCTIONS TO VISIBILITY.





USA.gov is the U.S. government's official web portal to all federal, state and local government web resources and services.